TimeEST,TemperatureF,Dew PointF,Humidity,Sea Level PressureIn,VisibilityMPH,Wind Direction,Wind SpeedMPH,Gust SpeedMPH,PrecipitationIn,Events,Conditions,WindDirDegrees,DateUTC
12:51 AM,23.0,19.0,85,30.24,10.0,South,4.6,-,N/A,,Scattered Clouds,170,2012-02-10 05:51:00
1:51 AM,21.9,18.0,85,30.23,10.0,South,4.6,-,N/A,,Clear,180,2012-02-10 06:51:00
2:51 AM,24.1,19.0,81,30.20,10.0,South,4.6,-,N/A,,Clear,190,2012-02-10 07:51:00
3:51 AM,21.9,19.0,89,30.20,9.0,Calm,Calm,-,N/A,,Clear,0,2012-02-10 08:51:00
4:51 AM,21.9,18.0,85,30.20,10.0,Calm,Calm,-,N/A,,Clear,0,2012-02-10 09:51:00
5:51 AM,21.9,19.0,89,30.18,10.0,Calm,Calm,-,N/A,,Clear,0,2012-02-10 10:51:00
6:51 AM,25.0,21.0,85,30.16,10.0,SSE,5.8,-,N/A,,Overcast,160,2012-02-10 11:51:00
7:51 AM,26.1,21.0,81,30.16,10.0,SSE,4.6,-,N/A,,Overcast,150,2012-02-10 12:51:00
8:51 AM,27.0,21.0,78,30.17,10.0,SSE,5.8,-,N/A,,Overcast,150,2012-02-10 13:51:00
9:51 AM,28.9,23.0,78,30.16,10.0,SSE,3.5,-,N/A,,Overcast,150,2012-02-10 14:51:00
10:51 AM,33.1,24.1,70,30.14,10.0,SSE,3.5,-,N/A,,Mostly Cloudy,160,2012-02-10 15:51:00
10:58 AM,33.8,24.8,70,30.03,10.0,South,3.5,-,N/A,,Scattered Clouds,190,2012-02-10 15:58:00
11:16 AM,33.8,24.8,70,30.03,10.0,Calm,Calm,-,N/A,,Mostly Cloudy,0,2012-02-10 16:16:00
11:51 AM,35.1,25.0,67,30.12,10.0,West,4.6,-,N/A,,Overcast,260,2012-02-10 16:51:00
12:18 PM,35.6,26.6,70,30.01,10.0,SW,6.9,-,N/A,,Overcast,220,2012-02-10 17:18:00
12:51 PM,36.0,25.0,64,30.09,10.0,SW,9.2,-,N/A,,Overcast,220,2012-02-10 17:51:00
1:09 PM,33.8,26.6,75,29.99,2.5,SW,11.5,-,0.00,Snow,Light Snow,220,2012-02-10 18:09:00
1:17 PM,33.8,28.4,81,29.98,1.0,SW,10.4,-,0.00,Snow,Light Snow,220,2012-02-10 18:17:00
1:24 PM,33.8,28.4,81,29.97,0.8,SW,6.9,-,0.00,Snow,Light Snow,230,2012-02-10 18:24:00
1:36 PM,33.8,30.2,87,29.96,1.0,WSW,3.5,-,0.00,Snow,Light Snow,250,2012-02-10 18:36:00
1:39 PM,32.0,30.2,93,29.96,0.8,WSW,3.5,-,0.00,Snow,Light Snow,240,2012-02-10 18:39:00
1:51 PM,32.0,28.9,88,30.06,1.0,SW,4.6,-,0.01,Snow,Light Snow,230,2012-02-10 18:51:00
2:00 PM,33.8,30.2,87,29.95,3.0,SW,5.8,-,0.00,Snow,Light Snow,230,2012-02-10 19:00:00
2:07 PM,33.8,30.2,87,29.94,6.0,WSW,4.6,-,0.00,,Overcast,250,2012-02-10 19:07:00
2:15 PM,33.8,30.2,87,29.94,6.0,SW,5.8,-,0.00,,Mostly Cloudy,230,2012-02-10 19:15:00
2:23 PM,33.8,28.4,81,29.95,8.0,SW,5.8,-,0.00,,Mostly Cloudy,230,2012-02-10 19:23:00
2:51 PM,34.0,28.0,79,30.03,10.0,WSW,5.8,-,0.00,,Overcast,250,2012-02-10 19:51:00
3:51 PM,35.1,28.9,78,30.03,10.0,West,5.8,-,N/A,,Overcast,260,2012-02-10 20:51:00
4:51 PM,34.0,27.0,75,30.04,5.0,WSW,8.1,-,N/A,,Haze,240,2012-02-10 21:51:00
5:04 PM,33.8,28.4,81,29.94,2.0,WSW,5.8,-,0.00,Snow,Light Snow,250,2012-02-10 22:04:00
5:13 PM,33.8,28.4,81,29.94,1.5,WSW,5.8,-,0.00,Snow,Light Snow,250,2012-02-10 22:13:00
5:28 PM,32.0,28.4,87,29.93,1.0,WSW,4.6,-,0.00,Snow,Light Snow,250,2012-02-10 22:28:00
5:45 PM,32.0,28.4,87,29.93,0.8,WSW,4.6,-,0.01,Snow,Light Snow,240,2012-02-10 22:45:00
5:51 PM,32.0,28.9,88,30.03,0.8,WSW,3.5,-,0.01,Snow,Light Snow,240,2012-02-10 22:51:00
5:59 PM,32.0,28.4,87,29.92,0.8,SW,3.5,-,0.00,Snow,Light Snow,230,2012-02-10 22:59:00
6:10 PM,32.0,28.4,87,29.91,1.5,South,6.9,-,0.01,Snow,Light Snow,170,2012-02-10 23:10:00
6:18 PM,32.0,28.4,87,29.91,2.0,South,4.6,-,0.01,Snow,Light Snow,190,2012-02-10 23:18:00
6:39 PM,30.2,28.4,93,29.91,1.8,Calm,Calm,-,0.01,Snow,Light Snow,0,2012-02-10 23:39:00
6:48 PM,30.2,28.4,93,29.91,2.5,SW,4.6,-,0.01,Snow,Light Snow,220,2012-02-10 23:48:00
6:51 PM,30.9,28.0,89,30.01,2.0,SW,3.5,-,0.02,Snow,Light Snow,220,2012-02-10 23:51:00
7:00 PM,30.2,28.4,93,29.91,2.0,SSW,4.6,-,0.00,Snow,Light Snow,210,2012-02-11 00:00:00
7:26 PM,30.2,28.4,93,29.91,1.2,SSW,5.8,-,0.00,Snow,Light Snow,210,2012-02-11 00:26:00
7:51 PM,30.9,28.0,89,29.99,1.5,SSW,4.6,-,0.02,Snow,Light Snow,200,2012-02-11 00:51:00
8:09 PM,30.2,28.4,93,29.90,1.5,SW,3.5,-,0.00,Snow,Light Snow,220,2012-02-11 01:09:00
8:34 PM,30.2,28.4,93,29.89,0.8,Calm,Calm,-,0.02,Snow,Light Snow,0,2012-02-11 01:34:00
8:51 PM,30.9,28.0,89,29.98,1.2,WSW,5.8,-,0.03,Snow,Light Snow,240,2012-02-11 01:51:00
9:09 PM,30.2,28.4,93,29.89,1.2,Calm,Calm,-,0.00,Snow,Light Snow,0,2012-02-11 02:09:00
9:31 PM,30.2,28.4,93,29.88,1.2,Calm,Calm,-,0.01,Snow,Light Snow,0,2012-02-11 02:31:00
9:51 PM,30.9,28.9,92,29.97,1.2,WSW,3.5,-,0.02,Snow,Light Snow,240,2012-02-11 02:51:00
10:30 PM,30.2,28.4,93,29.87,1.5,WSW,3.5,-,0.01,Snow,Light Snow,240,2012-02-11 03:30:00
10:51 PM,30.9,28.9,92,29.94,1.5,SW,3.5,-,0.02,Snow,Light Snow,230,2012-02-11 03:51:00
11:29 PM,30.2,28.4,93,29.86,2.0,WSW,5.8,-,0.01,Snow,Light Snow,250,2012-02-11 04:29:00
11:51 PM,30.0,28.0,92,29.92,2.5,SW,4.6,-,0.01,Snow,Light Snow,230,2012-02-11 04:51:00
11:58 PM,30.2,28.4,93,29.84,3.0,WSW,4.6,-,0.00,Snow,Light Snow,240,2012-02-11 04:58:00